| Date | Time | Temp. (oF) | Dew Point (oF) | Rel. Hum. (%) | Press. (in.) | Wind Dir. | Wind Speed (mph) | Hourly Rainfall (in.) |
|
|---|---|---|---|---|---|---|---|---|---|
| 1 | 02/07 | 00:00 | 31 | 28 | 89 | 30.51 | NNE | 0 | 0.00 |
| 2 | 02/06 | 23:00 | 32 | 28 | 87 | 30.53 | NE | 3 | 0.00 |
| 3 | 02/06 | 22:00 | 34 | 29 | 82 | 30.56 | NE | 0 | 0.00 |
| 4 | 02/06 | 21:00 | 35 | 28 | 76 | 30.55 | NE | 0 | 0.00 |
| 5 | 02/06 | 20:00 | 38 | 29 | 70 | 30.54 | NE | 0 | 0.00 |
| 6 | 02/06 | 19:00 | 42 | 29 | 62 | 30.52 | NE | 1 | 0.00 |
| 7 | 02/06 | 18:00 | 46 | 28 | 51 | 30.51 | E | 2 | 0.00 |
| 8 | 02/06 | 17:00 | 51 | 30 | 46 | 30.50 | E | 1 | 0.00 |
| 9 | 02/06 | 16:00 | 52 | 31 | 46 | 30.51 | SSW | 3 | 0.00 |
| 10 | 02/06 | 15:00 | 52 | 31 | 45 | 30.51 | ENE | 1 | 0.00 |
| 11 | 02/06 | 14:00 | 50 | 30 | 47 | 30.52 | E | 3 | 0.00 |
| 12 | 02/06 | 13:00 | 49 | 31 | 51 | 30.55 | N | 3 | 0.00 |
| 13 | 02/06 | 12:00 | 46 | 30 | 55 | 30.57 | NE | 5 | 0.00 |
| 14 | 02/06 | 11:00 | 42 | 31 | 66 | 30.60 | ESE | 4 | 0.00 |
| 15 | 02/06 | 10:00 | 35 | 32 | 92 | 30.61 | SSW | 2 | 0.00 |
| 16 | 02/06 | 09:00 | 28 | 27 | 100 | 30.63 | WSW | 0 | 0.00 |
| 17 | 02/06 | 08:00 | 21 | 20 | 99 | 30.60 | WSW | 0 | 0.00 |
| 18 | 02/06 | 07:00 | 22 | 21 | 99 | 30.57 | W | 2 | 0.00 |
| 19 | 02/06 | 06:00 | 22 | 21 | 98 | 30.55 | W | 0 | 0.00 |
| 20 | 02/06 | 05:00 | 23 | 22 | 97 | 30.53 | W | 1 | 0.00 |
| 21 | miss | miss | miss | miss | miss | miss | miss | miss | |
| 22 | 02/06 | 04:41 | 24 | 23 | 97 | 30.53 | W | 0 | 0.00 |
| 23 | miss | miss | miss | miss | miss | miss | miss | miss | |
| 24 | 02/06 | 04:39 | 24 | 23 | 97 | 30.53 | W | 1 | 0.00 |
| 25 | miss | miss | miss | miss | miss | miss | miss | miss | |
| 26 | 02/06 | 04:38 | 24 | 23 | 97 | 30.53 | W | 1 | 0.00 |
| 27 | miss | miss | miss | miss | miss | miss | miss | miss | |
| 28 | 02/06 | 04:38 | 24 | 23 | 97 | 30.53 | W | 1 | 0.00 |
| 29 | miss | miss | miss | miss | miss | miss | miss | miss | |
| 30 | 02/06 | 04:38 | 24 | 23 | 97 | 30.53 | W | 1 | 0.00 |
| 31 | miss | miss | miss | miss | miss | miss | miss | miss | |
| 32 | 02/06 | 04:38 | 24 | 23 | 97 | 30.53 | W | 1 | 0.00 |
| 33 | miss | miss | miss | miss | miss | miss | miss | miss | |
| 34 | 02/06 | 04:38 | 24 | 23 | 97 | 30.53 | W | 1 | 0.00 |
| 35 | miss | miss | miss | miss | miss | miss | miss | miss | |
| 36 | 02/06 | 04:38 | 24 | 23 | 97 | 30.53 | W | 1 | 0.00 |
| 37 | miss | miss | miss | miss | miss | miss | miss | miss | |
| 38 | 02/06 | 04:38 | 24 | 23 | 97 | 30.53 | W | 1 | 0.00 |
| 39 | miss | miss | miss | miss | miss | miss | miss | miss | |
| 40 | 02/06 | 04:38 | 24 | 23 | 97 | 30.53 | W | 1 | 0.00 |
| 41 | miss | miss | miss | miss | miss | miss | miss | miss | |
| 42 | 02/06 | 04:38 | 24 | 23 | 97 | 30.53 | W | 1 | 0.00 |
| 43 | miss | miss | miss | miss | miss | miss | miss | miss | |
| 44 | 02/06 | 04:38 | 24 | 23 | 97 | 30.53 | W | 1 | 0.00 |
| 45 | 02/06 | 04:00 | 24 | 22 | 95 | 30.51 | WNW | 0 | 0.00 |
| 46 | 02/06 | 03:00 | 25 | 23 | 94 | 30.50 | WNW | 1 | 0.00 |
| 47 | 02/06 | 02:00 | 27 | 25 | 93 | 30.50 | WNW | 1 | 0.00 |
| 48 | 02/06 | 01:00 | 27 | 24 | 89 | 30.49 | W | 1 | 0.00 |
| 49 | 02/06 | 00:00 | 28 | 24 | 86 | 30.48 | W | 2 | 0.00 |
| 50 | 02/05 | 23:00 | 31 | 26 | 84 | 30.47 | W | 0 | 0.00 |
| 51 | 02/05 | 22:00 | 33 | 27 | 79 | 30.47 | WSW | 1 | 0.00 |
| 52 | 02/05 | 21:00 | 36 | 28 | 73 | 30.46 | NW | 1 | 0.00 |
| 53 | 02/05 | 20:00 | 39 | 28 | 66 | 30.45 | NW | 1 | 0.00 |
| 54 | 02/05 | 19:00 | 42 | 29 | 60 | 30.44 | WSW | 1 | 0.00 |
| 55 | 02/05 | 18:00 | 45 | 28 | 53 | 30.41 | WNW | 4 | 0.00 |
| 56 | 02/05 | 17:00 | 51 | 29 | 43 | 30.39 | W | 3 | 0.00 |
| 57 | 02/05 | 16:00 | 52 | 28 | 41 | 30.38 | NW | 4 | 0.00 |
| 58 | 02/05 | 15:00 | 51 | 29 | 44 | 30.38 | WNW | 4 | 0.00 |
| 59 | 02/05 | 14:00 | 50 | 29 | 46 | 30.39 | NW | 4 | 0.00 |
| 60 | 02/05 | 13:00 | 48 | 29 | 48 | 30.41 | WNW | 5 | 0.00 |
| 61 | 02/05 | 12:00 | 46 | 27 | 48 | 30.43 | NNW | 5 | 0.00 |
| 62 | 02/05 | 11:00 | 44 | 26 | 51 | 30.44 | NNW | 7 | 0.00 |
| 63 | 02/05 | 10:00 | 40 | 26 | 58 | 30.44 | NNW | 4 | 0.00 |
| 64 | 02/05 | 09:00 | 36 | 25 | 65 | 30.42 | NW | 5 | 0.00 |
| 65 | 02/05 | 08:00 | 29 | 22 | 76 | 30.41 | W | 2 | 0.00 |
| 66 | 02/05 | 07:00 | 30 | 21 | 71 | 30.39 | WNW | 2 | 0.00 |
| 67 | 02/05 | 06:00 | 28 | 20 | 74 | 30.37 | WNW | 4 | 0.00 |
| 68 | 02/05 | 05:00 | 29 | 21 | 73 | 30.36 | W | 2 | 0.00 |
| 69 | 02/05 | 04:00 | 30 | 21 | 71 | 30.35 | WSW | 1 | 0.00 |
| 70 | 02/05 | 03:00 | 32 | 21 | 65 | 30.33 | W | 3 | 0.00 |
| 71 | 02/05 | 02:00 | 32 | 22 | 69 | 30.32 | W | 2 | 0.00 |
| 72 | 02/05 | 01:00 | 31 | 22 | 71 | 30.31 | W | 4 | 0.00 |
| 73 | 02/05 | 00:00 | 32 | 23 | 70 | 30.30 | W | 2 | 0.00 |